Time,TemperatureF,DewpointF,PressureIn,WindDirection,WindDirectionDegrees,WindSpeedMPH,WindSpeedGustMPH,Humidity,HourlyPrecipIn,Conditions,Clouds,dailyrainin,SoftwareType,DateUTC
2013-02-12 00:00:00,43.8,17.9,30.21,SE,129,1.0,2.0,35,0.00,,,0.00,Wunderground v.1.15,2013-02-12 07:00:00,
2013-02-12 00:05:00,43.5,18.3,30.21,ESE,110,3.0,3.0,36,0.00,,,0.00,Wunderground v.1.15,2013-02-12 07:05:00,
2013-02-12 00:10:00,44.0,17.4,30.21,ESE,115,2.0,2.0,34,0.00,,,0.00,Wunderground v.1.15,2013-02-12 07:10:00,
2013-02-12 00:15:00,44.4,17.7,30.21,SE,125,1.0,2.0,34,0.00,,,0.00,Wunderground v.1.15,2013-02-12 07:15:00,
2013-02-12 00:21:00,43.6,18.4,30.21,SE,125,0.0,1.0,36,0.00,,,0.00,Wunderground v.1.15,2013-02-12 07:21:00,
2013-02-12 00:26:00,42.4,18.6,30.21,ESE,123,0.0,2.0,38,0.00,,,0.00,Wunderground v.1.15,2013-02-12 07:26:00,
2013-02-12 00:31:00,41.8,18.6,30.22,ESE,123,1.0,1.0,39,0.00,,,0.00,Wunderground v.1.15,2013-02-12 07:31:00,
2013-02-12 00:36:00,42.7,17.6,30.22,SE,130,2.0,3.0,36,0.00,,,0.00,Wunderground v.1.15,2013-02-12 07:36:00,
2013-02-12 00:41:00,44.0,18.1,30.22,SE,134,1.0,2.0,35,0.00,,,0.00,Wunderground v.1.15,2013-02-12 07:41:00,
2013-02-12 00:46:00,43.8,18.5,30.22,SE,130,0.0,2.0,36,0.00,,,0.00,Wunderground v.1.15,2013-02-12 07:46:00,
2013-02-12 00:51:00,43.8,17.9,30.22,ESE,119,1.0,1.0,35,0.00,,,0.00,Wunderground v.1.15,2013-02-12 07:51:00,
2013-02-12 00:56:00,43.7,18.5,30.22,ENE,71,1.0,2.0,36,0.00,,,0.00,Wunderground v.1.15,2013-02-12 07:56:00,
2013-02-12 01:01:00,42.8,18.3,30.22,ENE,77,0.0,1.0,37,0.00,,,0.00,Wunderground v.1.15,2013-02-12 08:01:00,
2013-02-12 01:07:00,41.8,19.2,30.22,SE,124,1.0,1.0,40,0.00,,,0.00,Wunderground v.1.15,2013-02-12 08:07:00,
2013-02-12 01:12:00,41.2,19.2,30.22,ESE,117,0.0,1.0,41,0.00,,,0.00,Wunderground v.1.15,2013-02-12 08:12:00,
2013-02-12 01:18:00,41.0,19.6,30.22,SE,124,1.0,1.0,42,0.00,,,0.00,Wunderground v.1.15,2013-02-12 08:18:00,
2013-02-12 01:23:00,40.7,19.4,30.22,SE,132,3.0,3.0,42,0.00,,,0.00,Wunderground v.1.15,2013-02-12 08:23:00,
2013-02-12 01:28:00,41.2,19.8,30.23,SE,127,2.0,4.0,42,0.00,,,0.00,Wunderground v.1.15,2013-02-12 08:28:00,
2013-02-12 01:33:00,41.3,19.9,30.23,SE,141,1.0,3.0,42,0.00,,,0.00,Wunderground v.1.15,2013-02-12 08:33:00,
2013-02-12 01:39:00,40.7,19.9,30.23,SW,215,0.0,4.0,43,0.00,,,0.00,Wunderground v.1.15,2013-02-12 08:39:00,
2013-02-12 01:44:00,40.3,19.5,30.23,SSE,148,0.0,1.0,43,0.00,,,0.00,Wunderground v.1.15,2013-02-12 08:44:00,
2013-02-12 01:49:00,40.3,20.1,30.23,SE,125,1.0,1.0,44,0.00,,,0.00,Wunderground v.1.15,2013-02-12 08:49:00,
2013-02-12 01:54:00,40.1,19.9,30.23,ESE,123,0.0,1.0,44,0.00,,,0.00,Wunderground v.1.15,2013-02-12 08:54:00,
2013-02-12 01:59:00,40.1,19.4,30.23,SSE,160,0.0,1.0,43,0.00,,,0.00,Wunderground v.1.15,2013-02-12 08:59:00,
2013-02-12 02:04:00,40.3,19.0,30.23,SE,128,0.0,0.0,42,0.00,,,0.00,Wunderground v.1.15,2013-02-12 09:04:00,
2013-02-12 02:09:00,40.8,18.9,30.23,East,91,1.0,2.0,41,0.00,,,0.00,Wunderground v.1.15,2013-02-12 09:09:00,
2013-02-12 02:15:00,41.5,18.9,30.23,ESE,114,1.0,3.0,40,0.00,,,0.00,Wunderground v.1.15,2013-02-12 09:15:00,
2013-02-12 02:20:00,42.0,18.8,30.23,ESE,117,1.0,1.0,39,0.00,,,0.00,Wunderground v.1.15,2013-02-12 09:20:00,
2013-02-12 02:26:00,42.0,18.8,30.23,ESE,117,0.0,1.0,39,0.00,,,0.00,Wunderground v.1.15,2013-02-12 09:26:00,
2013-02-12 02:31:00,41.7,19.1,30.23,ESE,120,1.0,1.0,40,0.00,,,0.00,Wunderground v.1.15,2013-02-12 09:31:00,
2013-02-12 02:36:00,40.8,20.0,30.23,SE,127,1.0,1.0,43,0.00,,,0.00,Wunderground v.1.15,2013-02-12 09:36:00,
2013-02-12 02:41:00,39.6,20.5,30.23,ESE,119,3.0,3.0,46,0.00,,,0.00,Wunderground v.1.15,2013-02-12 09:41:00,
2013-02-12 02:47:00,39.2,20.6,30.23,SE,128,1.0,3.0,47,0.00,,,0.00,Wunderground v.1.15,2013-02-12 09:47:00,
2013-02-12 02:52:00,39.1,21.0,30.23,SE,125,2.0,2.0,48,0.00,,,0.00,Wunderground v.1.15,2013-02-12 09:52:00,
2013-02-12 02:57:00,38.8,21.3,30.23,SE,132,1.0,2.0,49,0.00,,,0.00,Wunderground v.1.15,2013-02-12 09:57:00,
2013-02-12 03:02:00,38.7,21.2,30.23,SE,131,1.0,2.0,49,0.00,,,0.00,Wunderground v.1.15,2013-02-12 10:02:00,
2013-02-12 03:07:00,38.7,21.2,30.23,SE,127,1.0,2.0,49,0.00,,,0.00,Wunderground v.1.15,2013-02-12 10:07:00,
2013-02-12 03:12:00,38.8,20.8,30.23,SE,125,0.0,1.0,48,0.00,,,0.00,Wunderground v.1.15,2013-02-12 10:12:00,
2013-02-12 03:17:00,38.5,21.0,30.23,SE,129,0.0,1.0,49,0.00,,,0.00,Wunderground v.1.15,2013-02-12 10:17:00,
2013-02-12 03:22:00,38.3,21.3,30.23,SE,129,0.0,1.0,50,0.00,,,0.00,Wunderground v.1.15,2013-02-12 10:22:00,
2013-02-12 03:27:00,38.0,21.5,30.23,ESE,117,0.0,1.0,51,0.00,,,0.00,Wunderground v.1.15,2013-02-12 10:27:00,
2013-02-12 03:32:00,37.5,21.5,30.23,ESE,117,0.0,0.0,52,0.00,,,0.00,Wunderground v.1.15,2013-02-12 10:32:00,
2013-02-12 03:37:00,37.1,21.5,30.23,SE,126,0.0,1.0,53,0.00,,,0.00,Wunderground v.1.15,2013-02-12 10:37:00,
2013-02-12 03:42:00,36.8,21.3,30.23,ESE,123,0.0,1.0,53,0.00,,,0.00,Wunderground v.1.15,2013-02-12 10:42:00,
2013-02-12 03:47:00,36.7,21.6,30.23,SE,128,1.0,1.0,54,0.00,,,0.00,Wunderground v.1.15,2013-02-12 10:47:00,
2013-02-12 03:52:00,36.6,21.5,30.23,SE,127,0.0,1.0,54,0.00,,,0.00,Wunderground v.1.15,2013-02-12 10:52:00,
2013-02-12 03:57:00,36.7,21.2,30.23,ESE,113,0.0,1.0,53,0.00,,,0.00,Wunderground v.1.15,2013-02-12 10:57:00,
2013-02-12 04:02:00,37.1,20.2,30.23,ESE,103,0.0,0.0,50,0.00,,,0.00,Wunderground v.1.15,2013-02-12 11:02:00,
2013-02-12 04:07:00,37.8,20.3,30.23,ENE,75,1.0,1.0,49,0.00,,,0.00,Wunderground v.1.15,2013-02-12 11:07:00,
2013-02-12 04:12:00,38.0,20.0,30.22,ENE,75,0.0,0.0,48,0.00,,,0.00,Wunderground v.1.15,2013-02-12 11:12:00,
2013-02-12 04:17:00,37.7,21.2,30.23,ENE,75,0.0,0.0,51,0.00,,,0.00,Wunderground v.1.15,2013-02-12 11:17:00,
2013-02-12 04:22:00,36.8,21.7,30.23,ENE,76,0.0,1.0,54,0.00,,,0.00,Wunderground v.1.15,2013-02-12 11:22:00,
2013-02-12 04:27:00,36.5,21.0,30.23,SE,133,1.0,1.0,53,0.00,,,0.00,Wunderground v.1.15,2013-02-12 11:27:00,
2013-02-12 04:32:00,36.6,21.1,30.23,SE,134,0.0,1.0,53,0.00,,,0.00,Wunderground v.1.15,2013-02-12 11:32:00,
2013-02-12 04:37:00,35.9,21.3,30.23,South,188,0.0,1.0,55,0.00,,,0.00,Wunderground v.1.15,2013-02-12 11:37:00,
2013-02-12 04:43:00,35.7,21.1,30.23,South,188,0.0,0.0,55,0.00,,,0.00,Wunderground v.1.15,2013-02-12 11:43:00,
2013-02-12 04:48:00,35.6,21.9,30.24,South,187,0.0,0.0,57,0.00,,,0.00,Wunderground v.1.15,2013-02-12 11:48:00,
2013-02-12 04:53:00,35.5,20.9,30.24,South,187,0.0,0.0,55,0.00,,,0.00,Wunderground v.1.15,2013-02-12 11:53:00,
2013-02-12 04:58:00,35.5,20.9,30.24,South,187,0.0,0.0,55,0.00,,,0.00,Wunderground v.1.15,2013-02-12 11:58:00,
2013-02-12 05:03:00,35.2,21.9,30.24,South,187,0.0,0.0,58,0.00,,,0.00,Wunderground v.1.15,2013-02-12 12:03:00,
2013-02-12 05:08:00,34.8,21.1,30.24,South,181,0.0,0.0,57,0.00,,,0.00,Wunderground v.1.15,2013-02-12 12:08:00,
2013-02-12 05:13:00,34.6,21.3,30.24,SW,232,0.0,2.0,58,0.00,,,0.00,Wunderground v.1.15,2013-02-12 12:13:00,
2013-02-12 05:18:00,33.6,21.2,30.25,WSW,238,0.0,2.0,60,0.00,,,0.00,Wunderground v.1.15,2013-02-12 12:18:00,
2013-02-12 05:23:00,33.2,20.8,30.25,WSW,238,0.0,1.0,60,0.00,,,0.00,Wunderground v.1.15,2013-02-12 12:23:00,
2013-02-12 05:28:00,32.9,20.5,30.25,WSW,238,0.0,1.0,60,0.00,,,0.00,Wunderground v.1.15,2013-02-12 12:28:00,
2013-02-12 05:33:00,32.9,21.3,30.25,SW,214,0.0,1.0,62,0.00,,,0.00,Wunderground v.1.15,2013-02-12 12:33:00,
2013-02-12 05:38:00,33.0,21.4,30.25,SE,125,1.0,1.0,62,0.00,,,0.00,Wunderground v.1.15,2013-02-12 12:38:00,
2013-02-12 05:43:00,33.0,21.4,30.25,ESE,118,0.0,0.0,62,0.00,,,0.00,Wunderground v.1.15,2013-02-12 12:43:00,
2013-02-12 05:48:00,32.9,21.3,30.26,ESE,119,0.0,0.0,62,0.00,,,0.00,Wunderground v.1.15,2013-02-12 12:48:00,
2013-02-12 05:53:00,33.1,21.1,30.26,ESE,122,0.0,1.0,61,0.00,,,0.00,Wunderground v.1.15,2013-02-12 12:53:00,
2013-02-12 05:58:00,33.0,21.0,30.26,SE,129,0.0,1.0,61,0.00,,,0.00,Wunderground v.1.15,2013-02-12 12:58:00,
2013-02-12 06:03:00,33.5,20.7,30.26,WSW,248,0.0,2.0,59,0.00,,,0.00,Wunderground v.1.15,2013-02-12 13:03:00,
2013-02-12 06:08:00,34.2,20.5,30.27,WSW,249,2.0,4.0,57,0.00,,,0.00,Wunderground v.1.15,2013-02-12 13:08:00,
2013-02-12 06:13:00,34.2,20.5,30.27,NW,311,0.0,2.0,57,0.00,,,0.00,Wunderground v.1.15,2013-02-12 13:13:00,
2013-02-12 06:18:00,34.1,20.4,30.27,NW,304,0.0,2.0,57,0.00,,,0.00,Wunderground v.1.15,2013-02-12 13:18:00,
2013-02-12 06:23:00,33.8,20.2,30.27,NNE,18,1.0,3.0,57,0.00,,,0.00,Wunderground v.1.15,2013-02-12 13:23:00,
2013-02-12 06:28:00,33.9,20.3,30.27,NNE,15,0.0,3.0,57,0.00,,,0.00,Wunderground v.1.15,2013-02-12 13:28:00,
2013-02-12 06:33:00,33.8,20.2,30.28,ENE,69,0.0,1.0,57,0.00,,,0.00,Wunderground v.1.15,2013-02-12 13:33:00,
2013-02-12 06:38:00,33.7,20.1,30.28,ENE,63,0.0,1.0,57,0.00,,,0.00,Wunderground v.1.15,2013-02-12 13:38:00,
2013-02-12 06:43:00,33.7,20.1,30.28,ENE,62,0.0,0.0,57,0.00,,,0.00,Wunderground v.1.15,2013-02-12 13:43:00,
2013-02-12 06:48:00,33.6,20.0,30.28,ENE,63,0.0,0.0,57,0.00,,,0.00,Wunderground v.1.15,2013-02-12 13:48:00,
2013-02-12 06:53:00,33.4,19.8,30.28,ENE,60,0.0,0.0,57,0.00,,,0.00,Wunderground v.1.15,2013-02-12 13:53:00,
2013-02-12 06:58:00,33.2,19.6,30.29,ENE,58,0.0,0.0,57,0.00,,,0.00,Wunderground v.1.15,2013-02-12 13:58:00,
2013-02-12 07:03:00,32.9,19.7,30.29,ENE,58,0.0,0.0,58,0.00,,,0.00,Wunderground v.1.15,2013-02-12 14:03:00,
2013-02-12 07:09:00,32.8,19.6,30.29,West,270,0.0,1.0,58,0.00,,,0.00,Wunderground v.1.15,2013-02-12 14:09:00,
2013-02-12 07:14:00,33.0,19.8,30.29,West,269,0.0,0.0,58,0.00,,,0.00,Wunderground v.1.15,2013-02-12 14:14:00,
2013-02-12 07:19:00,32.8,20.0,30.29,West,270,0.0,0.0,59,0.00,,,0.00,Wunderground v.1.15,2013-02-12 14:19:00,
2013-02-12 07:24:00,32.6,19.8,30.30,WSW,253,0.0,1.0,59,0.00,,,0.00,Wunderground v.1.15,2013-02-12 14:24:00,
2013-02-12 07:29:00,32.4,19.3,30.30,WSW,253,0.0,1.0,58,0.00,,,0.00,Wunderground v.1.15,2013-02-12 14:29:00,
2013-02-12 07:34:00,32.5,18.9,30.30,WSW,253,0.0,0.0,57,0.00,,,0.00,Wunderground v.1.15,2013-02-12 14:34:00,
2013-02-12 07:39:00,33.3,18.9,30.31,WNW,294,0.0,1.0,55,0.00,,,0.00,Wunderground v.1.15,2013-02-12 14:39:00,
2013-02-12 07:44:00,34.0,19.9,30.31,ENE,63,0.0,1.0,56,0.00,,,0.00,Wunderground v.1.15,2013-02-12 14:44:00,
2013-02-12 07:49:00,34.6,20.1,30.31,East,79,2.0,2.0,55,0.00,,,0.00,Wunderground v.1.15,2013-02-12 14:49:00,
2013-02-12 07:54:00,36.2,19.8,30.31,NE,56,2.0,3.0,51,0.00,,,0.00,Wunderground v.1.15,2013-02-12 14:54:00,
2013-02-12 07:59:00,38.2,19.7,30.31,ENE,65,1.0,3.0,47,0.00,,,0.00,Wunderground v.1.15,2013-02-12 14:59:00,
2013-02-12 08:04:00,39.6,20.5,30.32,ENE,77,0.0,2.0,46,0.00,,,0.00,Wunderground v.1.15,2013-02-12 15:04:00,
2013-02-12 08:09:00,40.7,20.5,30.32,ENE,66,0.0,2.0,44,0.00,,,0.00,Wunderground v.1.15,2013-02-12 15:09:00,
2013-02-12 08:14:00,41.9,19.9,30.32,ENE,64,2.0,3.0,41,0.00,,,0.00,Wunderground v.1.15,2013-02-12 15:14:00,
2013-02-12 08:19:00,43.5,19.5,30.32,ENE,65,0.0,5.0,38,0.00,,,0.00,Wunderground v.1.15,2013-02-12 15:19:00,
2013-02-12 08:24:00,44.5,19.8,30.33,ENE,68,0.0,1.0,37,0.00,,,0.00,Wunderground v.1.15,2013-02-12 15:24:00,
2013-02-12 08:29:00,45.2,19.1,30.33,ENE,57,0.0,2.0,35,0.00,,,0.00,Wunderground v.1.15,2013-02-12 15:29:00,
2013-02-12 08:34:00,45.8,19.7,30.33,ENE,60,0.0,5.0,35,0.00,,,0.00,Wunderground v.1.15,2013-02-12 15:34:00,
2013-02-12 08:40:00,46.2,19.3,30.33,East,93,0.0,5.0,34,0.00,,,0.00,Wunderground v.1.15,2013-02-12 15:40:00,
2013-02-12 08:45:00,46.6,18.3,30.33,NNE,20,3.0,5.0,32,0.00,,,0.00,Wunderground v.1.15,2013-02-12 15:45:00,
2013-02-12 08:50:00,46.6,18.3,30.33,North,6,0.0,8.0,32,0.00,,,0.00,Wunderground v.1.15,2013-02-12 15:50:00,
2013-02-12 08:54:00,46.8,18.5,30.33,North,3,2.0,5.0,32,0.00,,,0.00,Wunderground v.1.15,2013-02-12 15:54:00,
2013-02-12 09:00:00,46.5,19.6,30.34,North,1,3.0,3.0,34,0.00,,,0.00,Wunderground v.1.15,2013-02-12 16:00:00,
2013-02-12 09:05:00,46.5,21.6,30.34,North,359,1.0,3.0,37,0.00,,,0.00,Wunderground v.1.15,2013-02-12 16:05:00,
2013-02-12 09:10:00,46.9,20.6,30.34,North,9,3.0,3.0,35,0.00,,,0.00,Wunderground v.1.15,2013-02-12 16:10:00,
2013-02-12 09:15:00,47.3,22.9,30.34,North,10,8.0,8.0,38,0.00,,,0.00,Wunderground v.1.15,2013-02-12 16:15:00,
2013-02-12 09:20:00,47.6,22.6,30.34,North,352,2.0,5.0,37,0.00,,,0.00,Wunderground v.1.15,2013-02-12 16:20:00,
2013-02-12 09:25:00,48.1,21.0,30.34,North,11,6.0,8.0,34,0.00,,,0.00,Wunderground v.1.15,2013-02-12 16:25:00,
2013-02-12 09:30:00,48.4,20.6,30.34,North,5,4.0,4.0,33,0.00,,,0.00,Wunderground v.1.15,2013-02-12 16:30:00,
2013-02-12 09:35:00,48.8,20.2,30.35,NNW,335,2.0,7.0,32,0.00,,,0.00,Wunderground v.1.15,2013-02-12 16:35:00,
2013-02-12 09:40:00,49.2,19.8,30.35,NW,326,1.0,4.0,31,0.00,,,0.00,Wunderground v.1.15,2013-02-12 16:40:00,
2013-02-12 09:45:00,49.8,18.8,30.35,SW,234,1.0,4.0,29,0.00,,,0.00,Wunderground v.1.15,2013-02-12 16:45:00,
2013-02-12 09:50:00,50.4,19.3,30.35,North,349,0.0,1.0,29,0.00,,,0.00,Wunderground v.1.15,2013-02-12 16:50:00,
2013-02-12 09:55:00,50.8,18.8,30.35,NNW,347,2.0,4.0,28,0.00,,,0.00,Wunderground v.1.15,2013-02-12 16:55:00,
2013-02-12 10:00:00,50.8,19.6,30.35,NW,321,0.0,2.0,29,0.00,,,0.00,Wunderground v.1.15,2013-02-12 17:00:00,
2013-02-12 10:05:00,51.3,19.3,30.35,NNE,23,3.0,3.0,28,0.00,,,0.00,Wunderground v.1.15,2013-02-12 17:05:00,
2013-02-12 10:10:00,51.8,18.8,30.35,NNE,23,3.0,4.0,27,0.00,,,0.00,Wunderground v.1.15,2013-02-12 17:10:00,
2013-02-12 10:15:00,52.2,19.2,30.35,NNW,340,0.0,4.0,27,0.00,,,0.00,Wunderground v.1.15,2013-02-12 17:15:00,
2013-02-12 10:20:00,52.6,17.7,30.35,ENE,74,1.0,4.0,25,0.00,,,0.00,Wunderground v.1.15,2013-02-12 17:20:00,
2013-02-12 10:25:00,52.7,19.6,30.35,NW,316,0.0,6.0,27,0.00,,,0.00,Wunderground v.1.15,2013-02-12 17:25:00,
2013-02-12 10:30:00,53.3,19.2,30.35,ESE,120,1.0,1.0,26,0.00,,,0.00,Wunderground v.1.15,2013-02-12 17:30:00,
2013-02-12 10:35:00,53.2,19.2,30.35,East,80,0.0,8.0,26,0.00,,,0.00,Wunderground v.1.15,2013-02-12 17:35:00,
2013-02-12 10:40:00,53.4,18.4,30.35,WNW,282,2.0,4.0,25,0.00,,,0.00,Wunderground v.1.15,2013-02-12 17:40:00,
2013-02-12 10:45:00,53.7,18.7,30.35,NW,310,3.0,6.0,25,0.00,,,0.00,Wunderground v.1.15,2013-02-12 17:45:00,
2013-02-12 10:50:00,54.1,19.0,30.35,NW,325,1.0,4.0,25,0.00,,,0.00,Wunderground v.1.15,2013-02-12 17:50:00,
2013-02-12 10:56:00,54.0,18.0,30.35,East,82,0.0,9.0,24,0.00,,,0.00,Wunderground v.1.15,2013-02-12 17:56:00,
2013-02-12 11:01:00,54.2,18.1,30.35,NNE,20,4.0,6.0,24,0.00,,,0.00,Wunderground v.1.15,2013-02-12 18:01:00,
2013-02-12 11:06:00,54.1,18.1,30.35,West,280,2.0,8.0,24,0.00,,,0.00,Wunderground v.1.15,2013-02-12 18:06:00,
2013-02-12 11:11:00,54.1,17.1,30.35,NW,315,1.0,4.0,23,0.00,,,0.00,Wunderground v.1.15,2013-02-12 18:11:00,
2013-02-12 11:16:00,54.4,17.3,30.35,NNE,30,4.0,8.0,23,0.00,,,0.00,Wunderground v.1.15,2013-02-12 18:16:00,
2013-02-12 11:21:00,54.8,17.7,30.35,West,273,1.0,6.0,23,0.00,,,0.00,Wunderground v.1.15,2013-02-12 18:21:00,
2013-02-12 11:26:00,55.1,17.9,30.35,NE,56,2.0,7.0,23,0.00,,,0.00,Wunderground v.1.15,2013-02-12 18:26:00,
2013-02-12 11:31:00,55.7,16.3,30.34,NW,326,2.0,7.0,21,0.00,,,0.00,Wunderground v.1.15,2013-02-12 18:31:00,
2013-02-12 11:36:00,55.7,15.2,30.34,North,5,3.0,10.0,20,0.00,,,0.00,Wunderground v.1.15,2013-02-12 18:36:00,
2013-02-12 11:41:00,55.8,16.4,30.34,East,83,1.0,5.0,21,0.00,,,0.00,Wunderground v.1.15,2013-02-12 18:41:00,
2013-02-12 11:46:00,56.0,17.6,30.34,NE,44,6.0,12.0,22,0.00,,,0.00,Wunderground v.1.15,2013-02-12 18:46:00,
2013-02-12 11:51:00,55.9,16.5,30.34,NNW,342,1.0,7.0,21,0.00,,,0.00,Wunderground v.1.15,2013-02-12 18:51:00,
2013-02-12 11:56:00,56.0,16.6,30.34,NNE,29,6.0,12.0,21,0.00,,,0.00,Wunderground v.1.15,2013-02-12 18:56:00,
2013-02-12 12:01:00,55.8,17.5,30.33,NE,37,6.0,11.0,22,0.00,,,0.00,Wunderground v.1.15,2013-02-12 19:01:00,
2013-02-12 12:06:00,56.1,18.8,30.33,North,8,9.0,13.0,23,0.00,,,0.00,Wunderground v.1.15,2013-02-12 19:06:00,
2013-02-12 12:11:00,55.9,18.6,30.33,NW,325,2.0,8.0,23,0.00,,,0.00,Wunderground v.1.15,2013-02-12 19:11:00,
2013-02-12 12:16:00,56.2,15.6,30.33,ENE,57,1.0,9.0,20,0.00,,,0.00,Wunderground v.1.15,2013-02-12 19:16:00,
2013-02-12 12:21:00,56.1,15.5,30.33,NNW,335,4.0,10.0,20,0.00,,,0.00,Wunderground v.1.15,2013-02-12 19:21:00,
2013-02-12 12:26:00,56.7,14.8,30.32,NE,46,3.0,10.0,19,0.00,,,0.00,Wunderground v.1.15,2013-02-12 19:26:00,
2013-02-12 12:31:00,57.0,16.3,30.32,NE,52,1.0,6.0,20,0.00,,,0.00,Wunderground v.1.15,2013-02-12 19:31:00,
2013-02-12 12:37:00,57.8,14.5,30.32,East,86,4.0,6.0,18,0.00,,,0.00,Wunderground v.1.15,2013-02-12 19:37:00,
2013-02-12 12:42:00,58.2,14.8,30.32,ENE,65,4.0,4.0,18,0.00,,,0.00,Wunderground v.1.15,2013-02-12 19:42:00,
2013-02-12 12:47:00,58.3,14.9,30.32,North,9,2.0,7.0,18,0.00,,,0.00,Wunderground v.1.15,2013-02-12 19:47:00,
2013-02-12 12:52:00,58.4,13.7,30.31,ENE,69,10.0,10.0,17,0.00,,,0.00,Wunderground v.1.15,2013-02-12 19:52:00,
2013-02-12 12:57:00,58.7,15.2,30.31,ENE,60,1.0,11.0,18,0.00,,,0.00,Wunderground v.1.15,2013-02-12 19:57:00,
2013-02-12 13:02:00,59.2,14.3,30.31,ENE,67,2.0,5.0,17,0.00,,,0.00,Wunderground v.1.15,2013-02-12 20:02:00,
2013-02-12 13:07:00,59.4,15.8,30.30,SE,142,0.0,5.0,18,0.00,,,0.00,Wunderground v.1.15,2013-02-12 20:07:00,
2013-02-12 13:12:00,59.7,16.1,30.30,NW,323,0.0,4.0,18,0.00,,,0.00,Wunderground v.1.15,2013-02-12 20:12:00,
2013-02-12 13:17:00,59.7,14.8,30.30,East,93,6.0,12.0,17,0.00,,,0.00,Wunderground v.1.15,2013-02-12 20:17:00,
2013-02-12 13:22:00,59.7,16.1,30.30,ESE,110,7.0,9.0,18,0.00,,,0.00,Wunderground v.1.15,2013-02-12 20:22:00,
2013-02-12 13:27:00,59.5,15.9,30.29,ENE,75,2.0,9.0,18,0.00,,,0.00,Wunderground v.1.15,2013-02-12 20:27:00,
2013-02-12 13:32:00,59.8,16.1,30.29,ENE,77,7.0,7.0,18,0.00,,,0.00,Wunderground v.1.15,2013-02-12 20:32:00,
2013-02-12 13:37:00,59.4,15.8,30.29,East,86,0.0,10.0,18,0.00,,,0.00,Wunderground v.1.15,2013-02-12 20:37:00,
2013-02-12 13:42:00,59.6,16.0,30.28,East,99,0.0,4.0,18,0.00,,,0.00,Wunderground v.1.15,2013-02-12 20:42:00,
2013-02-12 13:47:00,60.1,15.1,30.28,ENE,74,5.0,6.0,17,0.00,,,0.00,Wunderground v.1.15,2013-02-12 20:47:00,
2013-02-12 13:52:00,59.5,14.6,30.28,ENE,62,0.0,4.0,17,0.00,,,0.00,Wunderground v.1.15,2013-02-12 20:52:00,
2013-02-12 13:57:00,59.6,14.7,30.27,NW,319,0.0,5.0,17,0.00,,,0.00,Wunderground v.1.15,2013-02-12 20:57:00,
2013-02-12 14:02:00,59.7,16.1,30.27,NNE,18,5.0,11.0,18,0.00,,,0.00,Wunderground v.1.15,2013-02-12 21:02:00,
2013-02-12 14:07:00,59.2,15.7,30.27,ENE,70,2.0,11.0,18,0.00,,,0.00,Wunderground v.1.15,2013-02-12 21:07:00,
2013-02-12 14:12:00,59.9,14.9,30.27,NE,41,2.0,4.0,17,0.00,,,0.00,Wunderground v.1.15,2013-02-12 21:12:00,
2013-02-12 14:17:00,59.8,14.8,30.27,ESE,112,0.0,8.0,17,0.00,,,0.00,Wunderground v.1.15,2013-02-12 21:17:00,
2013-02-12 14:23:00,60.0,15.0,30.27,East,82,3.0,3.0,17,0.00,,,0.00,Wunderground v.1.15,2013-02-12 21:23:00,
2013-02-12 14:28:00,60.0,13.6,30.26,ENE,69,0.0,7.0,16,0.00,,,0.00,Wunderground v.1.15,2013-02-12 21:28:00,
2013-02-12 14:33:00,59.7,16.1,30.26,North,8,9.0,12.0,18,0.00,,,0.00,Wunderground v.1.15,2013-02-12 21:33:00,
2013-02-12 14:38:00,59.6,17.2,30.26,East,83,4.0,12.0,19,0.00,,,0.00,Wunderground v.1.15,2013-02-12 21:38:00,
2013-02-12 14:43:00,60.1,16.4,30.26,WNW,298,5.0,7.0,18,0.00,,,0.00,Wunderground v.1.15,2013-02-12 21:43:00,
2013-02-12 14:48:00,59.5,15.9,30.25,North,351,10.0,13.0,18,0.00,,,0.00,Wunderground v.1.15,2013-02-12 21:48:00,
2013-02-12 14:53:00,59.5,14.6,30.26,NNE,20,2.0,11.0,17,0.00,,,0.00,Wunderground v.1.15,2013-02-12 21:53:00,
2013-02-12 14:58:00,60.2,16.5,30.25,ESE,121,0.0,11.0,18,0.00,,,0.00,Wunderground v.1.15,2013-02-12 21:58:00,
2013-02-12 15:03:00,60.6,14.1,30.25,NE,37,3.0,6.0,16,0.00,,,0.00,Wunderground v.1.15,2013-02-12 22:03:00,
2013-02-12 15:08:00,60.9,15.7,30.25,NE,54,2.0,6.0,17,0.00,,,0.00,Wunderground v.1.15,2013-02-12 22:08:00,
2013-02-12 15:13:00,61.1,15.9,30.25,ENE,61,2.0,5.0,17,0.00,,,0.00,Wunderground v.1.15,2013-02-12 22:13:00,
2013-02-12 15:18:00,61.3,16.1,30.25,NNE,20,1.0,6.0,17,0.00,,,0.00,Wunderground v.1.15,2013-02-12 22:18:00,
2013-02-12 15:23:00,60.7,18.1,30.25,NW,316,7.0,9.0,19,0.00,,,0.00,Wunderground v.1.15,2013-02-12 22:23:00,
2013-02-12 15:28:00,59.9,16.2,30.25,West,281,0.0,9.0,18,0.00,,,0.00,Wunderground v.1.15,2013-02-12 22:28:00,
2013-02-12 15:33:00,60.6,15.5,30.25,NNW,335,0.0,5.0,17,0.00,,,0.00,Wunderground v.1.15,2013-02-12 22:33:00,
2013-02-12 15:38:00,61.0,15.8,30.25,ENE,65,3.0,7.0,17,0.00,,,0.00,Wunderground v.1.15,2013-02-12 22:38:00,
2013-02-12 15:43:00,61.2,14.6,30.25,WNW,283,2.0,4.0,16,0.00,,,0.00,Wunderground v.1.15,2013-02-12 22:43:00,
2013-02-12 15:48:00,61.0,18.4,30.25,NE,35,2.0,8.0,19,0.00,,,0.00,Wunderground v.1.15,2013-02-12 22:48:00,
2013-02-12 15:53:00,61.0,15.8,30.25,North,353,2.0,6.0,17,0.00,,,0.00,Wunderground v.1.15,2013-02-12 22:53:00,
2013-02-12 15:58:00,61.2,16.0,30.25,ENE,67,1.0,6.0,17,0.00,,,0.00,Wunderground v.1.15,2013-02-12 22:58:00,
2013-02-12 16:03:00,61.9,15.1,30.24,NNW,341,0.0,3.0,16,0.00,,,0.00,Wunderground v.1.15,2013-02-12 23:03:00,
2013-02-12 16:08:00,62.0,15.2,30.24,NE,34,0.0,6.0,16,0.00,,,0.00,Wunderground v.1.15,2013-02-12 23:08:00,
2013-02-12 16:13:00,62.1,13.8,30.24,ENE,69,5.0,5.0,15,0.00,,,0.00,Wunderground v.1.15,2013-02-12 23:13:00,
2013-02-12 16:18:00,61.9,15.1,30.24,NE,51,0.0,7.0,16,0.00,,,0.00,Wunderground v.1.15,2013-02-12 23:18:00,
2013-02-12 16:23:00,62.2,13.9,30.24,ENE,60,1.0,5.0,15,0.00,,,0.00,Wunderground v.1.15,2013-02-12 23:23:00,
2013-02-12 16:28:00,62.3,14.0,30.24,NE,53,0.0,5.0,15,0.00,,,0.00,Wunderground v.1.15,2013-02-12 23:28:00,
2013-02-12 16:33:00,62.3,14.0,30.24,WNW,288,2.0,3.0,15,0.00,,,0.00,Wunderground v.1.15,2013-02-12 23:33:00,
2013-02-12 16:38:00,62.2,13.9,30.23,NNW,330,3.0,5.0,15,0.00,,,0.00,Wunderground v.1.15,2013-02-12 23:38:00,
2013-02-12 16:43:00,62.0,12.2,30.24,NE,39,0.0,4.0,14,0.00,,,0.00,Wunderground v.1.15,2013-02-12 23:43:00,
2013-02-12 16:48:00,61.8,13.6,30.23,NE,41,4.0,6.0,15,0.00,,,0.00,Wunderground v.1.15,2013-02-12 23:48:00,
2013-02-12 16:53:00,61.6,13.4,30.23,ENE,72,0.0,6.0,15,0.00,,,0.00,Wunderground v.1.15,2013-02-12 23:53:00,
2013-02-12 16:58:00,61.9,13.7,30.23,East,80,4.0,6.0,15,0.00,,,0.00,Wunderground v.1.15,2013-02-12 23:58:00,
2013-02-12 17:03:00,61.7,11.9,30.23,NNE,28,3.0,7.0,14,0.00,,,0.00,Wunderground v.1.15,2013-02-13 00:03:00,
2013-02-12 17:08:00,62.0,13.8,30.23,East,79,0.0,7.0,15,0.00,,,0.00,Wunderground v.1.15,2013-02-13 00:08:00,
2013-02-12 17:13:00,62.0,13.8,30.23,NW,316,0.0,3.0,15,0.00,,,0.00,Wunderground v.1.15,2013-02-13 00:13:00,
2013-02-12 17:18:00,62.0,12.2,30.23,ESE,105,0.0,3.0,14,0.00,,,0.00,Wunderground v.1.15,2013-02-13 00:18:00,
2013-02-12 17:23:00,61.8,13.6,30.23,ENE,58,0.0,2.0,15,0.00,,,0.00,Wunderground v.1.15,2013-02-13 00:23:00,
2013-02-12 17:28:00,61.5,13.4,30.23,ENE,68,0.0,4.0,15,0.00,,,0.00,Wunderground v.1.15,2013-02-13 00:28:00,
2013-02-12 17:34:00,61.4,13.3,30.23,NNW,343,0.0,1.0,15,0.00,,,0.00,Wunderground v.1.15,2013-02-13 00:34:00,
2013-02-12 17:39:00,61.6,13.4,30.23,North,355,0.0,3.0,15,0.00,,,0.00,Wunderground v.1.15,2013-02-13 00:39:00,
2013-02-12 17:44:00,61.2,13.1,30.23,NNE,30,0.0,3.0,15,0.00,,,0.00,Wunderground v.1.15,2013-02-13 00:44:00,
2013-02-12 17:49:00,60.9,12.9,30.23,NW,312,0.0,4.0,15,0.00,,,0.00,Wunderground v.1.15,2013-02-13 00:49:00,
2013-02-12 17:54:00,60.8,12.8,30.23,NE,34,0.0,1.0,15,0.00,,,0.00,Wunderground v.1.15,2013-02-13 00:54:00,
2013-02-12 17:59:00,60.3,12.4,30.23,North,11,0.0,5.0,15,0.00,,,0.00,Wunderground v.1.15,2013-02-13 00:59:00,
2013-02-12 18:04:00,59.9,12.1,30.23,NNW,335,0.0,1.0,15,0.00,,,0.00,Wunderground v.1.15,2013-02-13 01:04:00,
2013-02-12 18:09:00,59.5,11.7,30.23,North,5,0.0,1.0,15,0.00,,,0.00,Wunderground v.1.15,2013-02-13 01:09:00,
2013-02-12 18:14:00,58.9,12.7,30.23,NNW,347,0.0,1.0,16,0.00,,,0.00,Wunderground v.1.15,2013-02-13 01:14:00,
2013-02-12 18:19:00,58.1,13.4,30.23,North,11,0.0,1.0,17,0.00,,,0.00,Wunderground v.1.15,2013-02-13 01:19:00,
2013-02-12 18:24:00,57.1,13.9,30.24,NNE,12,0.0,1.0,18,0.00,,,0.00,Wunderground v.1.15,2013-02-13 01:24:00,
2013-02-12 18:29:00,56.4,13.4,30.23,North,11,0.0,1.0,18,0.00,,,0.00,Wunderground v.1.15,2013-02-13 01:29:00,
2013-02-12 18:34:00,55.5,13.8,30.23,NNE,12,0.0,0.0,19,0.00,,,0.00,Wunderground v.1.15,2013-02-13 01:34:00,
2013-02-12 18:39:00,54.9,13.3,30.24,North,11,0.0,0.0,19,0.00,,,0.00,Wunderground v.1.15,2013-02-13 01:39:00,
2013-02-12 18:44:00,54.4,14.1,30.24,NNE,16,0.0,1.0,20,0.00,,,0.00,Wunderground v.1.15,2013-02-13 01:44:00,
2013-02-12 18:49:00,54.4,15.2,30.24,East,84,0.0,1.0,21,0.00,,,0.00,Wunderground v.1.15,2013-02-13 01:49:00,
2013-02-12 18:54:00,54.5,14.2,30.24,ENE,75,1.0,1.0,20,0.00,,,0.00,Wunderground v.1.15,2013-02-13 01:54:00,
2013-02-12 18:59:00,54.4,15.2,30.24,ENE,77,0.0,1.0,21,0.00,,,0.00,Wunderground v.1.15,2013-02-13 01:59:00,
2013-02-12 19:04:00,54.3,15.1,30.23,ENE,75,2.0,2.0,21,0.00,,,0.00,Wunderground v.1.15,2013-02-13 02:04:00,
2013-02-12 19:09:00,54.1,15.0,30.24,ENE,73,0.0,2.0,21,0.00,,,0.00,Wunderground v.1.15,2013-02-13 02:09:00,
2013-02-12 19:14:00,54.1,15.0,30.24,ENE,77,1.0,1.0,21,0.00,,,0.00,Wunderground v.1.15,2013-02-13 02:14:00,
2013-02-12 19:19:00,53.9,15.9,30.24,East,92,1.0,1.0,22,0.00,,,0.00,Wunderground v.1.15,2013-02-13 02:19:00,
2013-02-12 19:24:00,53.9,14.8,30.24,East,79,1.0,2.0,21,0.00,,,0.00,Wunderground v.1.15,2013-02-13 02:24:00,
2013-02-12 19:29:00,53.9,14.8,30.24,ENE,60,1.0,2.0,21,0.00,,,0.00,Wunderground v.1.15,2013-02-13 02:29:00,
2013-02-12 19:34:00,53.5,17.5,30.24,ENE,65,0.0,2.0,24,0.00,,,0.00,Wunderground v.1.15,2013-02-13 02:34:00,
2013-02-12 19:39:00,52.2,17.4,30.24,ENE,65,0.0,2.0,25,0.00,,,0.00,Wunderground v.1.15,2013-02-13 02:39:00,
2013-02-12 19:44:00,51.1,17.4,30.24,ENE,65,0.0,0.0,26,0.00,,,0.00,Wunderground v.1.15,2013-02-13 02:44:00,
2013-02-12 19:49:00,50.3,18.4,30.24,ENE,65,0.0,0.0,28,0.00,,,0.00,Wunderground v.1.15,2013-02-13 02:49:00,
2013-02-12 19:54:00,49.3,19.1,30.24,ENE,61,1.0,2.0,30,0.00,,,0.00,Wunderground v.1.15,2013-02-13 02:54:00,
2013-02-12 20:00:00,48.9,24.4,30.24,ENE,61,0.0,2.0,38,0.00,,,0.00,Wunderground v.1.15,2013-02-13 03:00:00,
2013-02-12 20:05:00,48.2,21.1,30.25,WSW,255,0.0,1.0,34,0.00,,,0.00,Wunderground v.1.15,2013-02-13 03:05:00,
2013-02-12 20:10:00,47.6,20.6,30.25,WSW,254,0.0,1.0,34,0.00,,,0.00,Wunderground v.1.15,2013-02-13 03:10:00,
2013-02-12 20:15:00,47.5,19.8,30.25,WSW,255,0.0,0.0,33,0.00,,,0.00,Wunderground v.1.15,2013-02-13 03:15:00,
2013-02-12 20:20:00,47.7,18.5,30.25,WSW,256,0.0,0.0,31,0.00,,,0.00,Wunderground v.1.15,2013-02-13 03:20:00,
2013-02-12 20:25:00,47.5,19.1,30.25,WSW,255,0.0,0.0,32,0.00,,,0.00,Wunderground v.1.15,2013-02-13 03:25:00,
2013-02-12 20:30:00,47.0,20.0,30.25,WSW,255,0.0,0.0,34,0.00,,,0.00,Wunderground v.1.15,2013-02-13 03:30:00,
2013-02-12 20:35:00,46.8,19.9,30.25,SE,135,0.0,0.0,34,0.00,,,0.00,Wunderground v.1.15,2013-02-13 03:35:00,
2013-02-12 20:40:00,46.9,20.0,30.24,ESE,115,1.0,1.0,34,0.00,,,0.00,Wunderground v.1.15,2013-02-13 03:40:00,
2013-02-12 20:45:00,47.1,19.4,30.25,SE,125,1.0,3.0,33,0.00,,,0.00,Wunderground v.1.15,2013-02-13 03:45:00,
2013-02-12 20:50:00,47.3,20.3,30.25,SE,126,1.0,2.0,34,0.00,,,0.00,Wunderground v.1.15,2013-02-13 03:50:00,
2013-02-12 20:55:00,46.3,20.8,30.25,SE,138,1.0,4.0,36,0.00,,,0.00,Wunderground v.1.15,2013-02-13 03:55:00,
2013-02-12 21:00:00,45.4,21.2,30.25,SW,236,0.0,1.0,38,0.00,,,0.00,Wunderground v.1.15,2013-02-13 04:00:00,
2013-02-12 21:05:00,45.8,20.3,30.25,WSW,248,0.0,1.0,36,0.00,,,0.00,Wunderground v.1.15,2013-02-13 04:05:00,
2013-02-12 21:10:00,45.6,20.8,30.25,SSE,167,0.0,0.0,37,0.00,,,0.00,Wunderground v.1.15,2013-02-13 04:10:00,
2013-02-12 21:15:00,45.2,19.8,30.25,SW,225,0.0,1.0,36,0.00,,,0.00,Wunderground v.1.15,2013-02-13 04:15:00,
2013-02-12 21:20:00,45.4,20.0,30.25,South,183,0.0,0.0,36,0.00,,,0.00,Wunderground v.1.15,2013-02-13 04:20:00,
2013-02-12 21:25:00,45.7,19.6,30.25,SE,138,0.0,1.0,35,0.00,,,0.00,Wunderground v.1.15,2013-02-13 04:25:00,
2013-02-12 21:30:00,45.8,20.3,30.25,SE,128,1.0,1.0,36,0.00,,,0.00,Wunderground v.1.15,2013-02-13 04:30:00,
2013-02-12 21:35:00,45.8,19.7,30.25,ESE,117,1.0,2.0,35,0.00,,,0.00,Wunderground v.1.15,2013-02-13 04:35:00,
2013-02-12 21:40:00,46.1,20.6,30.25,ESE,120,1.0,2.0,36,0.00,,,0.00,Wunderground v.1.15,2013-02-13 04:40:00,
2013-02-12 21:45:00,46.2,20.0,30.25,ESE,110,2.0,3.0,35,0.00,,,0.00,Wunderground v.1.15,2013-02-13 04:45:00,
2013-02-12 21:50:00,46.5,20.3,30.25,ESE,110,2.0,2.0,35,0.00,,,0.00,Wunderground v.1.15,2013-02-13 04:50:00,
2013-02-12 21:55:00,46.4,20.9,30.25,ESE,113,2.0,3.0,36,0.00,,,0.00,Wunderground v.1.15,2013-02-13 04:55:00,
2013-02-12 22:00:00,44.5,21.6,30.25,SSE,162,1.0,5.0,40,0.00,,,0.00,Wunderground v.1.15,2013-02-13 05:00:00,
2013-02-12 22:05:00,44.0,21.2,30.25,SE,129,1.0,2.0,40,0.00,,,0.00,Wunderground v.1.15,2013-02-13 05:05:00,
2013-02-12 22:10:00,44.5,21.0,30.25,ESE,118,2.0,2.0,39,0.00,,,0.00,Wunderground v.1.15,2013-02-13 05:10:00,
2013-02-12 22:15:00,43.6,21.4,30.25,SE,128,0.0,5.0,41,0.00,,,0.00,Wunderground v.1.15,2013-02-13 05:15:00,
2013-02-12 22:20:00,42.9,21.4,30.25,WNW,288,0.0,1.0,42,0.00,,,0.00,Wunderground v.1.15,2013-02-13 05:20:00,
2013-02-12 22:25:00,42.9,21.9,30.26,East,82,0.0,1.0,43,0.00,,,0.00,Wunderground v.1.15,2013-02-13 05:25:00,
2013-02-12 22:30:00,42.6,23.2,30.26,East,95,0.0,1.0,46,0.00,,,0.00,Wunderground v.1.15,2013-02-13 05:30:00,
2013-02-12 22:35:00,42.2,22.4,30.26,WSW,253,3.0,3.0,45,0.00,,,0.00,Wunderground v.1.15,2013-02-13 05:35:00,
2013-02-12 22:40:00,42.0,21.6,30.25,SSW,211,0.0,1.0,44,0.00,,,0.00,Wunderground v.1.15,2013-02-13 05:40:00,
2013-02-12 22:45:00,42.3,22.4,30.25,SSW,210,0.0,1.0,45,0.00,,,0.00,Wunderground v.1.15,2013-02-13 05:45:00,
2013-02-12 22:50:00,42.8,22.9,30.25,SE,128,0.0,0.0,45,0.00,,,0.00,Wunderground v.1.15,2013-02-13 05:50:00,
2013-02-12 22:55:00,42.8,22.4,30.25,ESE,116,0.0,1.0,44,0.00,,,0.00,Wunderground v.1.15,2013-02-13 05:55:00,
2013-02-12 23:00:00,42.8,22.4,30.26,ESE,115,0.0,0.0,44,0.00,,,0.00,Wunderground v.1.15,2013-02-13 06:00:00,
2013-02-12 23:06:00,42.8,21.8,30.26,SE,128,1.0,1.0,43,0.00,,,0.00,Wunderground v.1.15,2013-02-13 06:06:00,
2013-02-12 23:11:00,42.6,22.2,30.25,ESE,111,3.0,3.0,44,0.00,,,0.00,Wunderground v.1.15,2013-02-13 06:11:00,
2013-02-12 23:16:00,42.7,22.3,30.25,ESE,123,1.0,3.0,44,0.00,,,0.00,Wunderground v.1.15,2013-02-13 06:16:00,
2013-02-12 23:21:00,42.3,21.9,30.25,SE,129,1.0,2.0,44,0.00,,,0.00,Wunderground v.1.15,2013-02-13 06:21:00,
2013-02-12 23:26:00,42.1,22.3,30.25,SE,131,2.0,3.0,45,0.00,,,0.00,Wunderground v.1.15,2013-02-13 06:26:00,
2013-02-12 23:31:00,42.2,21.8,30.25,SE,129,1.0,2.0,44,0.00,,,0.00,Wunderground v.1.15,2013-02-13 06:31:00,
2013-02-12 23:36:00,42.1,21.7,30.25,SE,128,2.0,4.0,44,0.00,,,0.00,Wunderground v.1.15,2013-02-13 06:36:00,
2013-02-12 23:41:00,42.3,21.9,30.25,ESE,114,2.0,4.0,44,0.00,,,0.00,Wunderground v.1.15,2013-02-13 06:41:00,
2013-02-12 23:46:00,42.7,21.7,30.25,ESE,122,3.0,4.0,43,0.00,,,0.00,Wunderground v.1.15,2013-02-13 06:46:00,
2013-02-12 23:51:00,43.0,21.4,30.25,SE,126,4.0,4.0,42,0.00,,,0.00,Wunderground v.1.15,2013-02-13 06:51:00,
2013-02-12 23:56:00,42.9,21.4,30.25,ESE,105,2.0,4.0,42,0.00,,,0.00,Wunderground v.1.15,2013-02-13 06:56:00,